When you browse on this site, cookies collect data to enhance your experience and personalize the content and advertising you see.
Visit our Privacy Policy to learn more. By continuing to use the site, you agree to this use of cookies and data.
  • In Deutschland
  • Länderverzeichnis
  • Für 7 Tage
  • Wassertemperatur
  • Satellitenkarten
  • Wetterkarte
  • Widgets
  • user-avatar
    Anmelden

    Stündliche Wetter Aschdod

    Heute, 17 Dezember, Montag

    Zeit Temperatur Niederschläge Wind Luftdruck Luftfeuchtigkeit
    00:00 +18°C° 0 mm 3 m/S 761 mmHg 57%
    01:00 +17°C° 0 mm 3 m/S 761 mmHg 54%
    02:00 +17°C° 0 mm 3 m/S 761 mmHg 54%
    03:00 +17°C° 0 mm 3 m/S 761 mmHg 52%
    04:00 +15°C° 0 mm 4 m/S 761 mmHg 50%
    05:00 +15°C° 0 mm 4 m/S 761 mmHg 48%
    06:00 +15°C° 0 mm 5 m/S 761 mmHg 47%
    07:00 +16°C° 0 mm 5 m/S 762 mmHg 47%
    08:00 +16°C° 0 mm 5 m/S 761 mmHg 48%
    09:00 +17°C° 0 mm 6 m/S 761 mmHg 48%
    10:00 +18°C° 0 mm 7 m/S 761 mmHg 48%
    11:00 +20°C° 0 mm 8 m/S 762 mmHg 49%
    12:00 +20°C° 0.1 mm 8 m/S 762 mmHg 50%
    13:00 +20°C° 0.1 mm 8 m/S 762 mmHg 52%
    14:00 +20°C° 0.1 mm 8 m/S 762 mmHg 53%
    15:00 +18°C° 0.1 mm 7 m/S 762 mmHg 56%
    16:00 +18°C° 0.1 mm 7 m/S 762 mmHg 58%
    17:00 +17°C° 0.1 mm 6 m/S 762 mmHg 60%
    18:00 +17°C° 0.4 mm 6 m/S 762 mmHg 59%
    19:00 +17°C° 0.4 mm 6 m/S 763 mmHg 59%
    20:00 +17°C° 0.4 mm 5 m/S 763 mmHg 58%
    21:00 +17°C° 0.5 mm 5 m/S 763 mmHg 60%
    22:00 +17°C° 0.5 mm 5 m/S 763 mmHg 61%
    23:00 +17°C° 0.5 mm 6 m/S 764 mmHg 62%

    Morgen, 18 Dezember, Dienstag

    Zeit Temperatur Niederschläge Wind Luftdruck Luftfeuchtigkeit
    00:00 +17°C° 0.5 mm 6 m/S 764 mmHg 66%
    01:00 +16°C° 0.5 mm 6 m/S 764 mmHg 71%
    02:00 +16°C° 0.5 mm 6 m/S 764 mmHg 76%
    03:00 +16°C° 0.2 mm 6 m/S 764 mmHg 77%
    04:00 +16°C° 0.2 mm 6 m/S 764 mmHg 78%
    05:00 +16°C° 0.2 mm 6 m/S 764 mmHg 79%
    06:00 +16°C° 0.2 mm 6 m/S 764 mmHg 78%
    07:00 +15°C° 0.2 mm 6 m/S 764 mmHg 77%
    08:00 +15°C° 0.2 mm 6 m/S 764 mmHg 75%
    09:00 +16°C° 0.1 mm 6 m/S 764 mmHg 70%
    10:00 +17°C° 0.1 mm 6 m/S 764 mmHg 65%
    11:00 +19°C° 0.1 mm 6 m/S 764 mmHg 59%
    12:00 +20°C° 0 mm 5 m/S 764 mmHg 57%
    13:00 +20°C° 0 mm 5 m/S 764 mmHg 55%
    14:00 +20°C° 0 mm 4 m/S 763 mmHg 52%
    15:00 +20°C° 0 mm 4 m/S 763 mmHg 55%
    16:00 +19°C° 0 mm 3 m/S 763 mmHg 58%
    17:00 +18°C° 0 mm 3 m/S 763 mmHg 61%
    18:00 +18°C° 0 mm 2 m/S 763 mmHg 64%
    19:00 +18°C° 0 mm 2 m/S 763 mmHg 66%
    20:00 +17°C° 0 mm 2 m/S 763 mmHg 69%
    21:00 +17°C° 0 mm 2 m/S 763 mmHg 68%
    22:00 +17°C° 0 mm 3 m/S 763 mmHg 68%
    23:00 +17°C° 0 mm 3 m/S 763 mmHg 67%

    übermorgen, 19 Dezember, Mittwoch

    Zeit Temperatur Niederschläge Wind Luftdruck Luftfeuchtigkeit
    00:00 +16°C° 0 mm 3 m/S 763 mmHg 66%
    01:00 +15°C° 0 mm 4 m/S 763 mmHg 66%
    02:00 +15°C° 0 mm 4 m/S 762 mmHg 65%
    03:00 +15°C° 0 mm 4 m/S 762 mmHg 65%
    04:00 +15°C° 0 mm 5 m/S 762 mmHg 65%
    05:00 +15°C° 0 mm 5 m/S 762 mmHg 64%
    06:00 +15°C° 0.1 mm 5 m/S 762 mmHg 63%
    07:00 +15°C° 0.1 mm 5 m/S 762 mmHg 62%
    08:00 +16°C° 0.1 mm 6 m/S 762 mmHg 61%
    09:00 +16°C° 0.4 mm 7 m/S 762 mmHg 60%
    10:00 +17°C° 0.4 mm 7 m/S 762 mmHg 59%
    11:00 +18°C° 0.4 mm 8 m/S 762 mmHg 58%
    12:00 +18°C° 0.1 mm 8 m/S 762 mmHg 56%
    13:00 +18°C° 0.1 mm 9 m/S 761 mmHg 54%
    14:00 +19°C° 0.1 mm 9 m/S 761 mmHg 53%
    15:00 +18°C° 0.2 mm 8 m/S 761 mmHg 54%
    16:00 +17°C° 0.2 mm 7 m/S 761 mmHg 55%
    17:00 +17°C° 0.2 mm 7 m/S 761 mmHg 55%
    18:00 +17°C° 0.5 mm 7 m/S 761 mmHg 56%
    19:00 +16°C° 0.5 mm 7 m/S 762 mmHg 57%
    20:00 +16°C° 0.5 mm 6 m/S 762 mmHg 57%
    21:00 +16°C° 1 mm 7 m/S 762 mmHg 62%
    22:00 +15°C° 1 mm 7 m/S 762 mmHg 66%
    23:00 +15°C° 1 mm 7 m/S 762 mmHg 70%

    20 Dezember, Donnerstag

    Zeit Temperatur Niederschläge Wind Luftdruck Luftfeuchtigkeit
    00:00 +15°C° 1 mm 8 m/S 762 mmHg 73%
    01:00 +15°C° 1 mm 8 m/S 762 mmHg 76%
    02:00 +15°C° 1 mm 9 m/S 762 mmHg 78%
    03:00 +15°C° 1 mm 9 m/S 762 mmHg 79%
    04:00 +15°C° 1 mm 9 m/S 762 mmHg 79%
    05:00 +15°C° 1 mm 9 m/S 762 mmHg 80%
    06:00 +15°C° 0.7 mm 8 m/S 763 mmHg 79%
    07:00 +15°C° 0.7 mm 8 m/S 763 mmHg 78%
    08:00 +15°C° 0.7 mm 7 m/S 764 mmHg 77%
    09:00 +15°C° 0.5 mm 7 m/S 764 mmHg 75%
    10:00 +15°C° 0.5 mm 7 m/S 764 mmHg 73%
    11:00 +16°C° 0.5 mm 7 m/S 764 mmHg 71%
    12:00 +16°C° 0.6 mm 7 m/S 764 mmHg 71%
    13:00 +16°C° 0.6 mm 7 m/S 764 mmHg 72%
    14:00 +16°C° 0.6 mm 7 m/S 763 mmHg 72%
    15:00 +15°C° 0.4 mm 6 m/S 764 mmHg 73%
    16:00 +15°C° 0.4 mm 6 m/S 764 mmHg 74%
    17:00 +15°C° 0.4 mm 5 m/S 764 mmHg 75%
    18:00 +15°C° 0.2 mm 5 m/S 764 mmHg 76%
    19:00 +15°C° 0.2 mm 5 m/S 765 mmHg 76%
    20:00 +15°C° 0.2 mm 4 m/S 765 mmHg 77%
    21:00 +15°C° 0.2 mm 4 m/S 765 mmHg 77%
    22:00 +15°C° 0.2 mm 5 m/S 765 mmHg 78%
    23:00 +15°C° 0.2 mm 5 m/S 765 mmHg 78%

    21 Dezember, Freitag

    Zeit Temperatur Niederschläge Wind Luftdruck Luftfeuchtigkeit
    00:00 +14°C° 0.3 mm 5 m/S 765 mmHg 79%
    01:00 +14°C° 0.3 mm 5 m/S 765 mmHg 80%
    02:00 +14°C° 0.3 mm 5 m/S 765 mmHg 81%
    03:00 +14°C° 0.6 mm 4 m/S 765 mmHg 83%
    04:00 +14°C° 0.6 mm 4 m/S 765 mmHg 84%
    05:00 +14°C° 0.6 mm 4 m/S 765 mmHg 85%
    06:00 +14°C° 0.3 mm 4 m/S 766 mmHg 85%
    07:00 +14°C° 0.3 mm 4 m/S 766 mmHg 85%
    08:00 +14°C° 0.3 mm 4 m/S 767 mmHg 85%
    09:00 +15°C° 0.1 mm 4 m/S 767 mmHg 82%
    10:00 +15°C° 0.1 mm 4 m/S 767 mmHg 79%
    11:00 +17°C° 0.1 mm 4 m/S 767 mmHg 77%
    12:00 +17°C° 0 mm 3 m/S 766 mmHg 73%
    13:00 +18°C° 0 mm 2 m/S 766 mmHg 70%
    14:00 +18°C° 0 mm 2 m/S 765 mmHg 67%
    15:00 +19°C° 0 mm 1 m/S 765 mmHg 70%
    16:00 +18°C° 0 mm 1 m/S 766 mmHg 73%
    17:00 +18°C° 0 mm 1 m/S 766 mmHg 76%
    18:00 +16°C° 0 mm 1 m/S 766 mmHg 78%
    19:00 +16°C° 0 mm 1 m/S 766 mmHg 80%
    20:00 +16°C° 0 mm 1 m/S 767 mmHg 82%
    21:00 +15°C° 0 mm 1 m/S 767 mmHg 81%
    22:00 +15°C° 0 mm 1 m/S 767 mmHg 81%
    23:00 +15°C° 0 mm 2 m/S 766 mmHg 81%

    22 Dezember, Samstag

    Zeit Temperatur Niederschläge Wind Luftdruck Luftfeuchtigkeit
    00:00 +15°C° 0 mm 2 m/S 766 mmHg 79%
    01:00 +14°C° 0 mm 2 m/S 766 mmHg 77%
    02:00 +14°C° 0 mm 2 m/S 766 mmHg 76%
    03:00 +14°C° 0.1 mm 2 m/S 766 mmHg 74%
    04:00 +14°C° 0.1 mm 2 m/S 766 mmHg 73%
    05:00 +14°C° 0.1 mm 2 m/S 765 mmHg 71%
    06:00 +15°C° 0.1 mm 2 m/S 766 mmHg 70%
    07:00 +15°C° 0.1 mm 2 m/S 766 mmHg 68%
    08:00 +16°C° 0.1 mm 2 m/S 766 mmHg 67%
    09:00 +16°C° 0.1 mm 2 m/S 766 mmHg 68%
    10:00 +17°C° 0.1 mm 2 m/S 766 mmHg 69%
    11:00 +17°C° 0.1 mm 3 m/S 766 mmHg 70%
    12:00 +18°C° 0.1 mm 4 m/S 766 mmHg 68%
    13:00 +18°C° 0.1 mm 4 m/S 765 mmHg 67%
    14:00 +17°C° 0.1 mm 5 m/S 765 mmHg 65%
    15:00 +17°C° 0.1 mm 5 m/S 765 mmHg 68%
    16:00 +17°C° 0.1 mm 4 m/S 765 mmHg 70%
    17:00 +17°C° 0.1 mm 4 m/S 765 mmHg 73%
    18:00 +16°C° 0.1 mm 3 m/S 766 mmHg 74%
    19:00 +16°C° 0.1 mm 3 m/S 766 mmHg 76%
    20:00 +16°C° 0.1 mm 2 m/S 766 mmHg 78%
    21:00 +16°C° 0 mm 2 m/S 766 mmHg 78%
    22:00 +15°C° 0 mm 2 m/S 766 mmHg 79%
    23:00 +15°C° 0 mm 2 m/S 766 mmHg 79%
    Mehr zeigen